Location: Six Mile Lake
(44.9000°N, 79.7170°W)
Time: 23:12:10
(UTC-04:00)

BEESAT - Pass Details

Date: 03 July 2022
Orbit: 700 x 706 km, 98.6° (Epoch: 11 August)

Event Time Altitude Azimuth Distance (km) Brightness Sun altitude
Rises 22:37:41 0° 5° (N) 3,105 ? -12.4°
Reaches altitude 10° 22:40:07 10° 356° (N) 2,183 ? -12.7°
Maximum altitude 22:44:22 33° 293° (WNW) 1,178 ? -13.1°
Drops below altitude 10° 22:48:36 10° 230° (SW) 2,173 ? -13.6°
Sets 22:51:01 0° 221° (SW) 3,087 ? -13.8°
